This is the latest recevied weather packets stored in our database for station/object DL9GJ-6. If no packets are shown the sender has not sent any weather packets the latest 10 day(s).
| Time | Temp. | Humidity | Pressure | Rain* | Wind** | Luminosity | Snow |
|---|---|---|---|---|---|---|---|
| 1778181251 | 10.56° C | 84% | 1015.5 hPa | 0 mm | - | 0 W/m² | - |
| 1778180898 | 10.56° C | 83% | 1015.4 hPa | 0 mm | - | 0 W/m² | - |
| 1778180539 | 11.11° C | 83% | 1015.3 hPa | 0 mm | - | 0 W/m² | - |
| 1778180179 | 11.11° C | 83% | 1015.3 hPa | 0 mm | - | 0 W/m² | - |
| 1778179820 | 11.11° C | 83% | 1015.2 hPa | 0 mm | - | 0 W/m² | - |
| 1778179459 | 11.11° C | 82% | 1015.1 hPa | 0 mm | - | 3 W/m² | - |
| 1778179099 | 11.67° C | 82% | 1015 hPa | 0 mm | - | 5 W/m² | - |
| 1778178740 | 11.67° C | 82% | 1015 hPa | 0 mm | - | 9 W/m² | - |
| 1778178379 | 11.67° C | 81% | 1015 hPa | 0 mm | - | 14 W/m² | - |
| 1778178373 | 11.67° C | 81% | 1015 hPa | 0 mm | - | 14 W/m² | - |
| 1778178020 | 11.67° C | 81% | 1015 hPa | 0 mm | - | 12 W/m² | - |
| 1778177658 | 12.22° C | 79% | 1014.8 hPa | 0 mm | - | 12 W/m² | - |
| 1778177298 | 12.22° C | 78% | 1014.8 hPa | 0 mm | - | 13 W/m² | - |
| 1778176938 | 12.22° C | 78% | 1014.7 hPa | 0 mm | - | 18 W/m² | - |
| 1778176578 | 12.22° C | 78% | 1014.7 hPa | 0 mm | - | 36 W/m² | - |
| 1778176569 | 12.22° C | 78% | 1014.7 hPa | 0 mm | - | 36 W/m² | - |
| 1778176219 | 12.78° C | 77% | 1014.7 hPa | 0 mm | - | 35 W/m² | - |
| 1778175858 | 12.78° C | 76% | 1014.7 hPa | 0 mm | - | 33 W/m² | - |
| 1778175498 | 12.78° C | 77% | 1014.7 hPa | 0 mm | - | 33 W/m² | - |
| 1778175138 | 12.78° C | 77% | 1014.5 hPa | 0 mm | - | 39 W/m² | - |
| 1778174779 | 12.78° C | 77% | 1014.5 hPa | 0 mm | - | 44 W/m² | - |
| 1778174769 | 12.78° C | 77% | 1014.5 hPa | 0 mm | - | 44 W/m² | - |
| 1778174419 | 13.33° C | 77% | 1014.5 hPa | 0 mm | - | 68 W/m² | - |
| 1778174409 | 13.33° C | 77% | 1014.5 hPa | 0 mm | - | 68 W/m² | - |
| 1778174060 | 12.78° C | 77% | 1014.3 hPa | 0 mm | - | 102 W/m² | - |
* Rain latest hour (hover to see other rain measurements)
** Current wind speed in m/s (hover to see current wind gust speed)